Skip Page Navigation
NASA JPL Caltech
NASA Logo - Jet Propulsion Laboratory + View the NASA Portal
+ Center for Near-Earth Object Studies
JPL Home Earth Solar System Stars & Galaxies Technology
JPL Solar System Dynamics
BODIES ORBITS EPHEMERIDES TOOLS PHYSICAL DATA DISCOVERY FAQ SITE MAP
IMPORTANT: The SSD Announcement email list is now available. Major changes are coming in the near future, including possible hostname and/or URL changes. To be notified of such changes, subscribe to this email list.

Please visit this page for more details.


JPL Small-Body Database Browser
Search: [ help ]  
35271 (1996 RR3)
Classification: Main-belt Asteroid          SPK-ID: 2035271
Ephemeris | Orbit Diagram | Orbital Elements | Mission Design | Physical Parameters | Discovery Circumstances | Close-Approach Data ]

[ show orbit diagram ]
Orbital Elements at Epoch 2458600.5 (2019-Apr-27.0) TDB
Reference: JPL 22 (heliocentric ecliptic J2000)
 Element Value Uncertainty (1-sigma)   Units 
e .02104959362189998 4.5468e-08  
a 2.42686535149869 1.0593e-08 au
q 2.375780822074573 1.1207e-07 au
i 3.275324501385001 4.9006e-06 deg
node 1.967707543478899 5.8721e-05 deg
peri 172.3862349376657 0.00010244 deg
M 172.7704735378863 8.5338e-05 deg
tp 2457937.774057274978
(2017-Jul-03.27405728)
0.00032615 TDB
period 1380.915005298577
3.78
9.041e-06
2.475e-08
d
yr
n .260696710962426 1.7068e-09 deg/d
Q 2.477949880922807 1.0816e-08 au
  Orbit Determination Parameters
   # obs. used (total)      1163  
   data-arc span      10368 days (28.39 yr)  
   first obs. used      1991-04-13  
   last obs. used      2019-09-01  
   planetary ephem.      DE431  
   SB-pert. ephem.      SB431-N16  
   condition code      0  
   norm. resid. RMS      .55094  
   source      ORB  
   producer      Otto Matic  
   solution date      2019-Sep-24 01:55:26  

Additional Information
 Earth MOID = 1.3788 au 
 Jupiter MOID = 2.48239 au 
 T_jup = 3.507 
[ show covariance matrix ]

Ephemeris | Orbit Diagram | Orbital Elements | Mission Design | Physical Parameters | Discovery Circumstances | Close-Approach Data ]

Physical Parameter Table
Parameter Symbol Value Units Sigma Reference Notes
absolute magnitude H 14.9   n/a MPO351076  
diameter diameter 2.777 km 0.417 urn:nasa:pds:neowise_diameters_albedos::2.0[mainbelt] (http://adsabs.harvard.edu/abs/2011ApJ...741...68M)  
geometric albedo albedo 0.302   0.084 urn:nasa:pds:neowise_diameters_albedos::2.0[mainbelt] (http://adsabs.harvard.edu/abs/2011ApJ...741...68M)  

35271 (1996 RR3)          Discovered 1996-Sep-13 by JPL/GEODSS NEAT at Haleakala
Reference: 20020227/Numbers.arcLast Updated: 2004-04-19

[ show close-approach data ]
Alternate Designations
 1996 RR3 = 1998 BF15 
Ephemeris | Orbit Diagram | Orbital Elements | Mission Design | Physical Parameters | Discovery Circumstances | Close-Approach Data ]
ABOUT SSD CREDITS/AWARDS PRIVACY/COPYRIGHT GLOSSARY LINKS
FirstGov 2019-Oct-20 20:40 UT
(server date/time)  
NASA Home Page
Site Manager:   Ryan S. Park
Webmaster  Alan B. Chamberlin